EW5167 Weather Reports


time (UTC)temp
F
wind
direction
speed
knots
gust
knots
rain 1hr
in
rain 24hr
in
rain mn
in
humidity
%
barometer
mb
20260507151020 55 0 0.0 0.9 0.00 0.00 0.00 77 1012.5
20260507150520 54 0 0.0 0.9 0.00 0.00 0.00 72 1012.5
20260507150041 55 0 0.0 1.7 0.00 0.00 0.00 76 1012.6
20260507145519 55 0 0.0 1.7 0.00 0.00 0.00 75 1012.7
20260507145022 55 0 0.0 1.7 0.00 0.00 0.00 73 1012.8
20260507144535 55 44 0.0 1.7 0.00 0.00 0.00 73 1012.8
20260507144019 55 0 0.0 2.6 0.00 0.00 0.00 72 1012.9
20260507143521 55 78 0.9 2.6 0.00 0.00 0.00 72 1012.8
20260507143039 54 0 0.0 1.7 0.00 0.00 0.00 74 1012.9
20260507142519 54 0 0.0 1.7 0.00 0.00 0.00 76 1013.1
20260507142019 54 261 0.0 1.7 0.00 0.00 0.00 80 1013.1
20260507141559 54 0 0.0 1.7 0.00 0.00 0.00 80 1013.0
20260507141019 54 261 0.0 1.7 0.00 0.00 0.00 79 1013.1
20260507140519 54 261 0.0 1.7 0.00 0.00 0.00 80 1013.1
20260507140042 54 0 0.0 1.7 0.00 0.00 0.00 82 1013.1
20260507135519 54 0 0.0 0.9 0.00 0.00 0.00 83 1013.0
20260507135023 54 0 0.0 2.6 0.00 0.00 0.00 82 1013.2
20260507134539 53 0 0.0 2.6 0.00 0.00 0.00 81 1013.3
20260507134018 53 261 0.0 2.6 0.00 0.00 0.00 83 1013.3
20260507133519 54 0 0.0 0.0 0.00 0.00 0.00 84 1013.2
20260507133038 53 0 0.0 1.7 0.00 0.00 0.00 84 1013.3
20260507132524 53 0 0.0 1.7 0.00 0.00 0.00 85 1013.3
20260507132018 54 0 0.0 1.7 0.00 0.00 0.00 85 1013.3
20260507131538 54 0 0.0 1.7 0.00 0.00 0.00 85 1013.2
20260507131019 54 0 0.0 1.7 0.00 0.00 0.00 85 1013.2
20260507130520 54 0 0.0 1.7 0.00 0.00 0.00 86 1013.2
20260507130033 53 261 0.0 1.7 0.00 0.00 0.00 86 1013.2
20260507125519 54 0 0.0 0.9 0.00 0.00 0.00 87 1013.1
20260507125019 54 0 0.0 0.9 0.00 0.00 0.00 89 1013.0
20260507124539 54 0 0.0 0.9 0.00 0.00 0.00 88 1012.9
20260507124020 54 0 0.0 0.9 0.00 0.00 0.00 88 1012.8
20260507123519 54 0 0.0 1.7 0.00 0.00 0.00 88 1013.0
20260507123042 54 0 0.0 1.7 0.00 0.00 0.00 88 1013.1
20260507122518 53 0 0.0 1.7 0.00 0.00 0.00 88 1013.0
20260507122018 54 261 0.0 1.7 0.00 0.00 0.00 89 1012.9
20260507121538 54 0 0.0 0.9 0.00 0.00 0.00 89 1012.8
20260507121019 53 0 0.0 0.9 0.00 0.00 0.00 89 1012.8
20260507120518 53 0 0.0 0.9 0.00 0.00 0.00 89 1012.7
20260507120043 53 0 0.0 0.9 0.00 0.00 0.00 89 1012.8
20260507115520 54 0 0.0 0.0 0.00 0.00 0.00 89 1013.0
20260507115019 53 0 0.0 0.9 0.00 0.00 0.00 89 1013.0
20260507114543 53 0 0.0 0.9 0.00 0.00 0.00 89 1013.0
20260507114020 53 0 0.0 0.9 0.00 0.00 0.00 90 1012.7
20260507113521 53 0 0.0 0.0 0.00 0.00 0.00 90 1012.5
20260507113046 53 0 0.0 0.0 0.00 0.00 0.00 90 1012.5
20260507112517 53 0 0.0 0.9 0.00 0.00 0.00 90 1012.5
20260507112017 53 0 0.0 0.9 0.00 0.00 0.00 90 1012.4
20260507111539 53 0 0.0 0.9 0.00 0.00 0.00 90 1012.3
20260507111020 53 161 0.0 0.9 0.00 0.00 0.00 90 1012.4
20260507110522 53 0 0.0 0.9 0.00 0.00 0.00 90 1012.5
20260507110039 53 0 0.0 0.9 0.00 0.00 0.00 90 1012.5
20260507105519 53 0 0.0 0.0 0.00 0.00 0.00 90 1012.3
20260507105020 53 0 0.0 0.0 0.00 0.00 0.00 90 1012.4
20260507104535 53 0 0.0 0.0 0.00 0.00 0.00 90 1012.5
20260507104020 53 0 0.0 0.9 0.00 0.00 0.00 90 1012.3
20260507103519 54 0 0.0 0.9 0.00 0.00 0.00 90 1012.1
20260507103044 54 0 0.0 0.0 0.00 0.00 0.00 90 1012.2
20260507102519 54 0 0.0 0.0 0.00 0.00 0.00 90 1012.2
20260507102021 54 0 0.0 0.0 0.00 0.00 0.00 90 1012.1
20260507101541 54 0 0.0 0.0 0.00 0.00 0.00 90 1012.1
20260507101020 54 0 0.0 0.0 0.00 0.00 0.00 90 1012.1
20260507100520 54 0 0.0 0.0 0.00 0.00 0.00 90 1012.0
20260507100042 54 0 0.0 0.0 0.00 0.00 0.00 90 1012.1
20260507095520 54 0 0.0 0.0 0.00 0.00 0.00 90 1012.1
20260507095020 54 0 0.0 0.0 0.00 0.00 0.00 90 1011.9
20260507094539 54 0 0.0 0.0 0.00 0.00 0.00 90 1011.8
20260507094019 54 0 0.0 0.0 0.00 0.00 0.00 90 1011.9
20260507093522 54 0 0.0 0.0 0.00 0.00 0.00 90 1011.9
20260507093036 54 0 0.0 0.0 0.00 0.00 0.00 90 1012.0
20260507092520 54 0 0.0 0.0 0.00 0.00 0.00 90 1012.0
20260507092023 54 0 0.0 0.0 0.00 0.00 0.00 90 1011.9
20260507091544 54 0 0.0 0.0 0.00 0.00 0.00 90 1011.6
20260507091023 54 0 0.0 0.0 0.00 0.00 0.00 90 1011.5
20260507090520 54 0 0.0 0.0 0.00 0.00 0.00 90 1011.6
20260507090044 54 0 0.0 0.0 0.00 0.00 0.00 90 1011.6
20260507085520 54 0 0.0 0.0 0.00 0.00 0.00 89 1011.8
20260507085020 54 0 0.0 0.0 0.00 0.00 0.00 89 1011.7
20260507084539 54 0 0.0 0.0 0.00 0.00 0.00 89 1011.8
20260507084020 54 0 0.0 0.0 0.00 0.00 0.00 90 1011.8
20260507083522 54 0 0.0 0.0 0.00 0.00 0.00 89 1011.5
20260507083039 54 0 0.0 0.0 0.00 0.00 0.00 89 1011.5
20260507082520 54 0 0.0 0.0 0.00 0.00 0.00 89 1011.9
20260507082019 54 0 0.0 0.0 0.00 0.00 0.00 89 1011.6
20260507081543 54 0 0.0 0.0 0.00 0.00 0.00 89 1011.5
20260507081023 54 0 0.0 0.0 0.00 0.00 0.00 89 1011.6
20260507080522 54 0 0.0 0.0 0.00 0.00 0.00 89 1011.6
20260507080045 54 0 0.0 0.9 0.00 0.00 0.00 89 1011.3
20260507075520 54 0 0.0 0.9 0.00 0.00 0.00 89 1011.3
20260507075022 54 0 0.0 1.7 0.00 0.00 0.00 89 1011.1
20260507074540 54 163 0.0 1.7 0.00 0.00 0.00 89 1011.1
20260507074024 54 0 0.9 3.5 0.00 0.00 0.00 89 1011.2
20260507073520 54 0 0.0 3.5 0.00 0.00 0.00 89 1011.3
20260507073041 54 0 0.0 1.7 0.00 0.00 0.00 89 1011.3
20260507072520 54 0 0.0 2.6 0.00 0.00 0.00 89 1011.1
20260507072021 54 0 0.0 2.6 0.00 0.00 0.00 89 1011.0
20260507071540 54 93 0.0 2.6 0.00 0.00 0.00 89 1011.1
20260507071022 55 0 0.0 2.6 0.00 0.00 0.00 89 1011.0
20260507070522 55 0 0.0 2.6 0.00 0.00 0.00 90 1011.1
20260507070042 55 198 0.0 2.6 0.00 0.00 0.00 90 1011.0
20260507065520 55 0 0.0 2.6 0.00 0.00 0.00 90 1011.1
20260507065021 56 0 0.0 1.7 0.00 0.00 0.00 90 1010.9
20260507064542 56 202 0.0 1.7 0.00 0.00 0.00 90 1011.1
20260507064019 56 0 0.0 1.7 0.00 0.00 0.00 90 1011.1
20260507063521 56 0 0.0 1.7 0.00 0.00 0.00 90 1011.2
20260507063055 56 0 0.0 3.5 0.00 0.00 0.00 89 1011.1
20260507062524 56 0 0.0 3.5 0.00 0.00 0.00 89 1010.9
20260507062020 56 0 0.9 3.5 0.00 0.00 0.00 89 1011.1
20260507061544 56 111 0.0 6.1 0.00 0.00 0.00 90 1011.2
20260507061021 56 0 0.0 6.1 0.00 0.00 0.00 89 1010.9
20260507060520 57 229 0.9 4.3 0.00 0.00 0.00 89 1010.9
20260507060039 57 221 0.9 3.5 0.00 0.00 0.00 89 1010.8
20260507055522 57 180 0.0 3.5 0.00 0.00 0.00 89 1010.7
20260507055021 57 187 0.0 3.5 0.00 0.00 0.00 89 1010.7
20260507054538 57 0 0.0 1.7 0.00 0.00 0.00 89 1010.6
20260507054022 57 0 0.0 2.6 0.00 0.00 0.00 89 1010.4
20260507053521 57 0 0.9 2.6 0.00 0.00 0.00 89 1010.5
20260507053039 57 0 0.0 1.7 0.00 0.00 0.00 89 1011.1
20260507052520 57 0 0.0 1.7 0.00 0.00 0.00 89 1010.9
20260507052022 58 0 0.0 1.7 0.00 0.00 0.00 89 1010.8
20260507051539 58 96 0.0 2.6 0.00 0.00 0.00 88 1011.0
20260507051024 58 0 0.0 2.6 0.00 0.00 0.00 89 1010.8
20260507050521 58 93 0.0 2.6 0.00 0.00 0.00 88 1010.9
20260507050047 58 93 0.0 2.6 0.00 0.00 0.00 88 1010.9
20260507045521 58 0 0.0 2.6 0.00 0.00 0.00 88 1011.1
20260507045020 58 0 0.0 3.5 0.00 0.00 0.00 88 1010.7
20260507044543 58 0 0.0 3.5 0.00 0.00 0.00 87 1010.5
20260507044021 59 95 1.7 6.1 0.00 0.00 0.00 87 1010.7
20260507043521 59 333 0.9 6.1 0.00 0.00 0.00 87 1011.0
20260507043041 59 99 0.9 2.6 0.00 0.00 0.00 87 1011.2
20260507042519 59 0 0.0 3.5 0.00 0.00 0.00 86 1011.3
20260507042021 60 0 0.9 3.5 0.00 0.00 0.00 85 1011.1
20260507041544 60 80 0.9 5.2 0.00 0.00 0.00 85 1011.1
20260507041022 61 318 0.9 6.1 0.00 0.00 0.00 84 1011.4
20260507040521 61 123 0.9 6.1 0.00 0.00 0.00 83 1010.7
20260507040050 62 63 0.9 3.5 0.00 0.00 0.00 83 1011.1
20260507035519 63 258 0.9 3.5 0.00 0.00 0.00 82 1010.6
20260507035019 63 280 0.9 7.0 0.00 0.00 0.00 82 1010.5
20260507034602 63 85 0.9 7.0 0.00 0.00 0.00 82 1010.5
20260507034020 63 91 0.0 3.5 0.00 0.00 0.00 82 1010.4
20260507033523 64 0 0.0 5.2 0.00 0.00 0.00 82 1010.4
20260507033058 64 0 0.9 6.1 0.00 0.00 0.00 83 1010.5
20260507032522 64 81 2.6 6.1 0.00 0.00 0.00 83 1010.5
20260507032021 64 225 0.9 6.1 0.00 0.00 0.00 84 1010.7
20260507031535 64 44 0.9 6.1 0.00 0.00 0.00 84 1010.6
20260507031020 65 0 0.0 5.2 0.00 0.00 0.00 85 1010.5
20260507030522 64 0 0.9 6.1 0.00 0.00 0.00 85 1010.3
20260507030045 64 104 1.7 6.1 0.00 0.00 0.00 86 1010.1
20260507025522 65 225 1.7 4.3 0.00 0.00 0.00 86 1009.7
20260507025019 65 87 0.0 3.5 0.00 0.00 0.00 87 1009.7
20260507024553 65 87 0.0 3.5 0.00 0.00 0.00 87 1009.9
20260507024021 65 0 0.0 1.7 0.00 0.00 0.00 88 1010.1
20260507023521 65 0 0.0 1.7 0.00 0.00 0.00 88 1010.1
20260507023039 65 0 0.0 1.7 0.00 0.00 0.00 87 1009.9
20260507022521 65 0 0.0 2.6 0.00 0.00 0.00 88 1009.8
20260507022022 65 154 0.0 2.6 0.00 0.00 0.00 88 1009.9
20260507021539 65 0 0.0 1.7 0.00 0.00 0.00 88 1009.8
20260507021019 66 0 0.0 1.7 0.00 0.00 0.00 88 1009.4
20260507020518 66 0 0.0 0.0 0.00 0.00 0.00 88 1009.3
20260507020037 66 0 0.0 2.6 0.00 0.00 0.00 89 1009.3
20260507015519 66 0 0.0 2.6 0.00 0.00 0.00 89 1009.3
20260507015018 66 219 0.0 2.6 0.00 0.00 0.00 88 1009.6
20260507014535 67 0 0.0 1.7 0.00 0.00 0.00 88 1009.7
20260507014018 67 0 0.0 4.3 0.00 0.00 0.00 88 1009.8
20260507013518 67 219 0.0 4.3 0.00 0.00 0.00 88 1009.3
20260507013042 67 220 0.9 4.3 0.00 0.00 0.00 88 1009.4
20260507012518 67 0 0.0 0.0 0.00 0.00 0.00 88 1009.6
20260507012018 67 0 0.0 0.0 0.00 0.00 0.00 88 1009.6
20260507011540 67 0 0.0 0.0 0.00 0.00 0.00 87 1009.5
20260507011017 67 0 0.0 0.0 0.00 0.00 0.00 87 1009.6
20260507010521 67 0 0.0 0.0 0.00 0.00 0.00 87 1009.7
20260507010041 67 0 0.0 0.0 0.00 0.00 0.00 87 1009.7
20260507005521 67 0 0.0 0.0 0.00 0.00 0.00 87 1009.7
20260507005019 67 0 0.0 0.0 0.00 0.00 0.00 87 1009.6
20260507004535 67 0 0.0 0.9 0.00 0.00 0.00 87 1009.5
20260507004019 67 0 0.0 0.9 0.00 0.00 0.00 87 1009.4
20260507003519 67 0 0.0 0.0 0.00 0.00 0.00 87 1009.4
20260507003035 67 0 0.0 1.7 0.00 0.00 0.00 87 1009.3
20260507002518 67 0 0.0 1.7 0.00 0.00 0.00 87 1009.4
20260507002018 67 0 0.0 1.7 0.00 0.00 0.00 86 1009.1
20260507001603 68 122 0.0 0.9 0.00 0.00 0.00 86 1009.4
20260507001018 68 0 0.0 1.7 0.00 0.00 0.00 86 1009.3
20260507000518 68 0 0.0 1.7 0.00 0.00 0.00 86 1009.2
20260507000040 68 0 0.0 1.7 0.00 0.00 0.00 86 1009.1
20260506235517 68 0 0.0 1.7 0.00 0.00 0.00 86 1009.0
20260506235021 68 0 0.0 1.7 0.00 0.00 0.00 86 1008.8
20260506234549 68 99 0.0 0.9 0.00 0.00 0.00 86 1008.9
20260506234021 68 0 0.0 0.9 0.00 0.00 0.00 85 1008.9
20260506233518 68 0 0.0 0.9 0.00 0.00 0.00 85 1008.7
20260506233039 68 0 0.0 1.7 0.00 0.00 0.00 85 1008.7
20260506232517 69 0 0.0 1.7 0.00 0.00 0.00 85 1008.5
20260506232018 69 0 0.0 0.9 0.00 0.00 0.00 84 1008.6
20260506231537 69 0 0.0 0.9 0.00 0.00 0.00 84 1008.6
20260506231018 69 0 0.0 0.9 0.00 0.00 0.00 84 1008.6
20260506230519 69 0 0.0 0.9 0.00 0.00 0.00 83 1008.5
20260506230043 70 0 0.0 1.7 0.00 0.00 0.00 83 1008.5
20260506225518 70 0 0.0 1.7 0.00 0.00 0.00 82 1008.5
20260506225019 70 0 0.0 2.6 0.00 0.00 0.00 82 1008.6
20260506224549 70 0 0.0 2.6 0.00 0.00 0.00 82 1008.5
20260506224019 70 288 0.0 1.7 0.00 0.00 0.00 82 1008.5
20260506223517 70 0 0.0 0.9 0.00 0.00 0.00 82 1008.4
20260506223039 71 0 0.0 0.9 0.00 0.00 0.00 82 1008.4
20260506222518 70 0 0.0 2.6 0.00 0.00 0.00 81 1008.5
20260506222018 70 0 0.0 2.6 0.00 0.00 0.00 81 1008.6
20260506221535 70 65 0.9 2.6 0.00 0.00 0.00 81 1008.5
20260506221019 70 0 0.0 2.6 0.00 0.00 0.00 80 1008.5
20260506220518 70 0 0.9 3.5 0.00 0.00 0.00 80 1008.5
20260506220044 70 102 0.9 5.2 0.00 0.00 0.00 81 1008.6
20260506215522 70 300 0.0 5.2 0.00 0.00 0.00 81 1008.6
20260506215018 70 266 0.9 5.2 0.00 0.00 0.00 80 1008.6
20260506214540 70 305 0.9 5.2 0.00 0.00 0.00 80 1008.4
20260506214019 70 115 1.7 5.2 0.00 0.00 0.00 80 1008.5
20260506213518 70 280 1.7 4.3 0.00 0.00 0.00 80 1008.6
20260506213038 70 263 0.9 6.1 0.00 0.00 0.00 81 1008.6
20260506212520 70 250 0.0 6.1 0.00 0.00 0.00 81 1008.5
20260506212021 70 308 1.7 7.8 0.00 0.00 0.00 81 1008.5
20260506211536 70 0 1.7 7.8 0.00 0.00 0.00 80 1008.5
20260506211018 70 264 1.7 7.8 0.00 0.00 0.00 81 1008.6
20260506210518 70 0 1.7 6.1 0.00 0.00 0.00 81 1008.5
20260506210035 70 0 0.9 6.1 0.00 0.00 0.00 81 1008.3
20260506205520 70 295 0.9 7.8 0.00 0.00 0.00 80 1008.4
20260506205018 70 125 2.6 7.8 0.00 0.00 0.00 80 1008.3
20260506204537 70 66 1.7 6.1 0.00 0.00 0.00 81 1008.3
20260506204019 70 279 2.6 6.1 0.00 0.00 0.00 80 1008.2
20260506203519 70 289 1.7 6.1 0.00 0.00 0.00 81 1008.2
20260506203040 70 252 0.9 7.0 0.00 0.00 0.00 81 1008.1
20260506202520 70 105 1.7 7.0 0.00 0.00 0.00 81 1008.2
20260506202018 69 345 1.7 8.7 0.00 0.00 0.00 81 1008.2
20260506201539 69 294 2.6 8.7 0.00 0.00 0.00 80 1008.1
20260506201018 69 277 1.7 5.2 0.00 0.00 0.00 81 1008.2
20260506200517 69 302 0.9 7.8 0.00 0.00 0.00 81 1008.2
20260506200036 69 221 1.7 7.8 0.00 0.00 0.00 81 1008.3
20260506195518 69 284 1.7 7.8 0.00 0.00 0.00 81 1008.2
20260506195020 69 44 1.7 7.8 0.00 0.00 0.00 81 1008.3
20260506194551 69 25 1.7 6.1 0.00 0.00 0.00 82 1008.3
20260506194023 69 317 1.7 6.1 0.00 0.00 0.00 82 1008.3
20260506193518 68 0 0.9 7.8 0.00 0.00 0.00 81 1008.4
20260506193049 68 262 0.9 7.8 0.00 0.00 0.00 81 1008.4
20260506192521 68 282 3.5 7.8 0.00 0.00 0.00 81 1008.6
20260506192019 68 70 0.9 7.8 0.00 0.00 0.00 82 1008.4
20260506191541 68 125 0.9 5.2 0.00 0.00 0.00 82 1008.6
20260506191020 68 287 0.9 5.2 0.00 0.00 0.00 82 1008.8
20260506190520 68 248 0.9 9.6 0.00 0.00 0.00 82 1008.6
20260506190039 67 196 1.7 9.6 0.00 0.00 0.00 82 1009.0
20260506185520 67 263 1.7 7.0 0.00 0.00 0.00 82 1009.1
20260506185021 67 274 1.7 7.0 0.00 0.00 0.00 82 1009.1
20260506184545 67 243 2.6 7.0 0.00 0.00 0.00 82 1009.2
20260506184019 67 307 0.9 5.2 0.00 0.00 0.00 82 1009.1
20260506183521 67 252 1.7 7.0 0.00 0.00 0.00 82 1009.2
20260506183046 67 305 1.7 8.7 0.00 0.00 0.00 82 1009.1
20260506182520 67 251 0.9 8.7 0.00 0.00 0.00 82 1009.1
20260506182026 67 231 0.9 6.1 0.00 0.00 0.00 82 1009.0
20260506181559 67 278 0.9 7.8 0.00 0.00 0.00 82 1008.9
20260506181021 67 255 1.7 7.8 0.00 0.00 0.00 82 1009.2
20260506180521 67 207 2.6 7.8 0.00 0.00 0.00 83 1009.3
20260506180042 66 101 1.7 7.0 0.00 0.00 0.00 83 1009.3
20260506175525 66 259 2.6 7.0 0.00 0.00 0.00 82 1009.3
20260506175021 66 329 1.7 7.0 0.00 0.00 0.00 82 1009.3
20260506174538 66 302 2.6 7.0 0.00 0.00 0.00 82 1009.3
20260506174021 66 0 2.6 7.0 0.00 0.00 0.00 82 1009.4
20260506173523 66 15 2.6 6.1 0.00 0.00 0.00 82 1009.4
20260506173052 66 230 1.7 6.1 0.00 0.00 0.00 84 1009.3
20260506172520 65 290 2.6 6.1 0.00 0.00 0.00 83 1009.4
20260506172020 65 259 1.7 9.6 0.00 0.00 0.00 84 1009.3
20260506171553 65 31 3.5 9.6 0.00 0.00 0.00 83 1009.3
20260506171017 65 266 1.7 9.6 0.00 0.00 0.00 84 1009.3
20260506170520 65 284 1.7 9.6 0.00 0.00 0.00 84 1009.4
20260506170045 65 275 1.7 7.8 0.00 0.00 0.00 83 1009.5
20260506165520 65 195 3.5 11.3 0.00 0.00 0.00 83 1009.7
20260506165022 65 259 2.6 11.3 0.00 0.00 0.00 84 1009.6
20260506164539 65 266 3.5 21.7 0.00 0.00 0.00 84 1009.6
20260506164021 65 257 3.5 21.7 0.00 0.00 0.00 84 1009.6
20260506163521 65 306 2.6 7.8 0.00 0.00 0.00 85 1009.5
20260506163036 65 282 1.7 9.6 0.00 0.00 0.00 86 1009.7
20260506162520 65 55 2.6 9.6 0.00 0.00 0.00 86 1009.8
20260506162023 64 250 2.6 6.1 0.00 0.00 0.00 88 1009.6
20260506161536 64 195 0.9 8.7 0.00 0.00 0.00 88 1009.7
20260506161021 63 350 1.7 8.7 0.00 0.00 0.00 88 1009.7
20260506160519 63 164 1.7 7.0 0.00 0.00 0.00 88 1009.7
20260506160039 63 336 0.9 12.2 0.00 0.00 0.00 88 1009.9
20260506155520 63 296 2.6 12.2 0.00 0.00 0.00 88 1009.8
20260506155020 63 309 2.6 7.0 0.00 0.00 0.00 89 1009.7
20260506154548 63 250 1.7 8.7 0.00 0.00 0.00 89 1010.0
20260506154018 63 0 1.7 8.7 0.00 0.00 0.00 89 1010.1
20260506153519 63 265 1.7 7.8 0.00 0.00 0.00 89 1010.0
20260506153039 63 195 1.7 7.0 0.00 0.00 0.00 89 1009.9
20260506152518 63 330 0.9 6.1 0.00 0.00 0.00 90 1010.0
20260506152021 62 279 1.7 9.6 0.00 0.00 0.00 90 1010.2
20260506151539 62 221 3.5 9.6 0.00 0.00 0.00 90 1010.1